Time,TemperatureF,DewpointF,PressureIn,WindDirection,WindDirectionDegrees,WindSpeedMPH,WindSpeedGustMPH,Humidity,HourlyPrecipIn,Conditions,Clouds,dailyrainin,SolarRadiationWatts/m^2,SoftwareType,DateUTC
2013-01-15 00:08:00,26.9,21.0,30.20,WNW,290,0.0,5.0,78,0.00,,,0.00,0,weatherlink.com 1.10,2013-01-15 05:08:00,
2013-01-15 00:23:00,26.8,21.0,30.23,NW,316,0.0,6.0,77,0.00,,,0.00,0,weatherlink.com 1.10,2013-01-15 05:23:00,
2013-01-15 00:38:00,26.7,21.0,30.22,NNW,332,0.0,10.0,78,0.00,,,0.00,0,weatherlink.com 1.10,2013-01-15 05:38:00,
2013-01-15 00:53:00,26.4,20.0,30.21,North,355,0.0,4.0,77,0.00,,,0.00,0,weatherlink.com 1.10,2013-01-15 05:53:00,
2013-01-15 01:08:00,26.3,20.0,30.21,North,355,0.0,2.0,78,0.00,,,0.00,0,weatherlink.com 1.10,2013-01-15 06:08:00,
2013-01-15 01:23:00,26.0,20.0,30.19,South,181,0.0,6.0,78,0.00,,,0.00,0,weatherlink.com 1.10,2013-01-15 06:23:00,
2013-01-15 01:38:00,26.1,20.0,30.19,South,188,0.0,1.0,79,0.00,,,0.00,0,weatherlink.com 1.10,2013-01-15 06:38:00,
2013-01-15 01:53:00,26.1,20.0,30.20,WNW,298,0.0,7.0,79,0.00,,,0.00,0,weatherlink.com 1.10,2013-01-15 06:53:00,
2013-01-15 02:08:00,25.9,20.0,30.20,WNW,302,0.0,4.0,79,0.00,,,0.00,0,weatherlink.com 1.10,2013-01-15 07:08:00,
2013-01-15 02:23:00,25.8,20.0,30.20,NNW,347,1.0,9.0,79,0.00,,,0.00,0,weatherlink.com 1.10,2013-01-15 07:23:00,
2013-01-15 02:38:00,25.7,20.0,30.17,WNW,300,0.0,7.0,80,0.00,,,0.00,0,weatherlink.com 1.10,2013-01-15 07:38:00,
2013-01-15 02:53:00,25.6,21.0,30.18,WNW,303,4.0,9.0,81,0.00,,,0.00,0,weatherlink.com 1.10,2013-01-15 07:53:00,
2013-01-15 03:08:00,25.5,20.0,30.17,NW,321,1.0,9.0,80,0.00,,,0.00,0,weatherlink.com 1.10,2013-01-15 08:08:00,
2013-01-15 03:23:00,25.5,20.0,30.17,NW,309,0.0,9.0,81,0.00,,,0.00,0,weatherlink.com 1.10,2013-01-15 08:23:00,
2013-01-15 03:38:00,25.4,20.0,30.16,NNW,338,0.0,11.0,80,0.00,,,0.00,0,weatherlink.com 1.10,2013-01-15 08:38:00,
2013-01-15 03:53:00,25.3,20.0,30.17,NE,35,1.0,12.0,81,0.00,,,0.00,0,weatherlink.com 1.10,2013-01-15 08:53:00,
2013-01-15 04:08:00,25.2,20.0,30.16,NW,314,1.0,8.0,80,0.00,,,0.00,0,weatherlink.com 1.10,2013-01-15 09:08:00,
2013-01-15 04:23:00,24.9,20.0,30.16,North,350,3.0,8.0,80,0.00,,,0.00,0,weatherlink.com 1.10,2013-01-15 09:23:00,
2013-01-15 04:39:00,24.4,19.0,30.16,NW,324,4.0,8.0,81,0.00,,,0.00,0,weatherlink.com 1.10,2013-01-15 09:39:00,
2013-01-15 04:54:00,23.9,19.0,30.16,NW,310,2.0,7.0,82,0.00,,,0.00,0,weatherlink.com 1.10,2013-01-15 09:54:00,
2013-01-15 05:09:00,23.4,19.0,30.15,NW,312,0.0,1.0,82,0.00,,,0.00,0,weatherlink.com 1.10,2013-01-15 10:09:00,
2013-01-15 05:24:00,23.1,19.0,30.18,NNW,342,3.0,9.0,84,0.00,,,0.00,0,weatherlink.com 1.10,2013-01-15 10:24:00,
2013-01-15 05:39:00,23.2,19.0,30.19,NW,308,2.0,9.0,84,0.00,,,0.00,0,weatherlink.com 1.10,2013-01-15 10:39:00,
2013-01-15 05:54:00,22.9,19.0,30.19,WNW,292,0.0,10.0,85,0.00,,,0.00,0,weatherlink.com 1.10,2013-01-15 10:54:00,
2013-01-15 06:09:00,22.5,19.0,30.20,NW,305,1.0,4.0,85,0.00,,,0.00,0,weatherlink.com 1.10,2013-01-15 11:09:00,
2013-01-15 06:24:00,22.4,19.0,30.21,NW,305,0.0,4.0,86,0.00,,,0.00,0,weatherlink.com 1.10,2013-01-15 11:24:00,
2013-01-15 06:38:00,22.2,19.0,30.21,NW,307,0.0,7.0,86,0.00,,,0.00,0,weatherlink.com 1.10,2013-01-15 11:38:00,
2013-01-15 06:54:00,22.1,19.0,30.22,NW,306,0.0,4.0,86,0.00,,,0.00,0,weatherlink.com 1.10,2013-01-15 11:54:00,
2013-01-15 07:10:00,22.1,19.0,30.23,NW,306,0.0,0.0,86,0.00,,,0.00,0,weatherlink.com 1.10,2013-01-15 12:10:00,
2013-01-15 07:24:00,22.2,19.0,30.24,NW,306,0.0,1.0,87,0.00,,,0.00,0,weatherlink.com 1.10,2013-01-15 12:24:00,
2013-01-15 07:39:00,22.5,19.0,30.25,NW,306,0.0,1.0,87,0.00,,,0.00,7,weatherlink.com 1.10,2013-01-15 12:39:00,
2013-01-15 07:54:00,23.6,20.0,30.25,NW,306,0.0,0.0,86,0.00,,,0.00,40,weatherlink.com 1.10,2013-01-15 12:54:00,
2013-01-15 08:09:00,26.2,21.0,30.25,NW,306,0.0,2.0,81,0.00,,,0.00,121,weatherlink.com 1.10,2013-01-15 13:09:00,
2013-01-15 08:25:00,26.8,21.0,30.25,NW,325,3.0,8.0,78,0.00,,,0.00,190,weatherlink.com 1.10,2013-01-15 13:25:00,
2013-01-15 08:41:00,27.4,20.0,30.25,NNW,339,4.0,10.0,75,0.00,,,0.00,232,weatherlink.com 1.10,2013-01-15 13:41:00,
2013-01-15 08:55:00,27.2,20.0,30.26,NNE,14,5.0,8.0,74,0.00,,,0.00,255,weatherlink.com 1.10,2013-01-15 13:55:00,
2013-01-15 09:11:00,27.6,20.0,30.27,NNW,342,0.0,7.0,72,0.00,,,0.00,327,weatherlink.com 1.10,2013-01-15 14:11:00,
2013-01-15 09:25:00,27.2,20.0,30.27,NW,312,1.0,8.0,73,0.00,,,0.00,373,weatherlink.com 1.10,2013-01-15 14:25:00,
2013-01-15 09:41:00,26.7,19.0,30.29,WNW,300,6.0,10.0,74,0.00,,,0.00,193,weatherlink.com 1.10,2013-01-15 14:41:00,
2013-01-15 09:56:00,28.3,20.0,30.29,NW,315,0.0,8.0,72,0.00,,,0.00,269,weatherlink.com 1.10,2013-01-15 14:56:00,
2013-01-15 10:11:00,28.0,20.0,30.29,South,188,0.0,9.0,71,0.00,,,0.00,206,weatherlink.com 1.10,2013-01-15 15:11:00,
2013-01-15 10:26:00,27.7,20.0,30.28,West,280,0.0,5.0,73,0.00,,,0.00,223,weatherlink.com 1.10,2013-01-15 15:26:00,
2013-01-15 10:41:00,28.0,20.0,30.27,West,277,1.0,4.0,72,0.00,,,0.00,227,weatherlink.com 1.10,2013-01-15 15:41:00,
2013-01-15 10:56:00,27.8,20.0,30.27,NNW,329,2.0,9.0,73,0.00,,,0.00,223,weatherlink.com 1.10,2013-01-15 15:56:00,
2013-01-15 11:12:00,28.1,20.0,30.25,NNW,346,2.0,9.0,71,0.00,,,0.00,274,weatherlink.com 1.10,2013-01-15 16:12:00,
2013-01-15 11:26:00,28.8,20.0,30.25,NW,308,0.0,9.0,70,0.00,,,0.00,362,weatherlink.com 1.10,2013-01-15 16:26:00,
2013-01-15 11:42:00,28.3,19.0,30.24,NW,304,3.0,10.0,69,0.00,,,0.00,283,weatherlink.com 1.10,2013-01-15 16:42:00,
2013-01-15 11:57:00,28.3,20.0,30.25,West,271,0.0,9.0,70,0.00,,,0.00,186,weatherlink.com 1.10,2013-01-15 16:57:00,
2013-01-15 12:12:00,28.3,20.0,30.24,NNW,327,1.0,6.0,70,0.00,,,0.00,174,weatherlink.com 1.10,2013-01-15 17:12:00,
2013-01-15 12:28:00,28.1,20.0,30.24,NW,319,0.0,6.0,71,0.00,,,0.00,227,weatherlink.com 1.10,2013-01-15 17:28:00,
2013-01-15 12:42:00,28.8,20.0,30.24,NW,312,1.0,5.0,69,0.00,,,0.00,207,weatherlink.com 1.10,2013-01-15 17:42:00,
2013-01-15 12:57:00,28.4,20.0,30.23,SW,236,0.0,8.0,70,0.00,,,0.00,149,weatherlink.com 1.10,2013-01-15 17:57:00,
2013-01-15 13:12:00,27.9,20.0,30.23,NW,317,3.0,8.0,72,0.00,,,0.00,165,weatherlink.com 1.10,2013-01-15 18:12:00,
2013-01-15 13:28:00,28.1,20.0,30.23,SSW,192,0.0,7.0,72,0.00,,,0.00,165,weatherlink.com 1.10,2013-01-15 18:28:00,
2013-01-15 13:43:00,28.5,20.0,30.23,WNW,284,1.0,6.0,71,0.00,,,0.00,197,weatherlink.com 1.10,2013-01-15 18:43:00,
2013-01-15 13:58:00,27.9,20.0,30.24,NNW,337,4.0,8.0,73,0.00,,,0.00,141,weatherlink.com 1.10,2013-01-15 18:58:00,
2013-01-15 14:13:00,27.4,20.0,30.24,South,171,1.0,6.0,75,0.00,,,0.00,128,weatherlink.com 1.10,2013-01-15 19:13:00,
2013-01-15 14:28:00,27.5,20.0,30.23,SSW,195,0.0,9.0,74,0.00,,,0.00,127,weatherlink.com 1.10,2013-01-15 19:28:00,
2013-01-15 14:44:00,27.4,20.0,30.22,West,269,3.0,6.0,74,0.00,,,0.00,134,weatherlink.com 1.10,2013-01-15 19:44:00,
2013-01-15 14:58:00,27.4,20.0,30.21,NNW,329,0.0,8.0,74,0.00,,,0.00,116,weatherlink.com 1.10,2013-01-15 19:58:00,
2013-01-15 15:14:00,27.2,20.0,30.21,North,360,0.0,4.0,75,0.00,,,0.00,90,weatherlink.com 1.10,2013-01-15 20:14:00,
2013-01-15 15:29:00,27.1,20.0,30.22,WNW,293,0.0,6.0,75,0.00,,,0.00,69,weatherlink.com 1.10,2013-01-15 20:29:00,
2013-01-15 15:44:00,27.2,20.0,30.23,WNW,292,0.0,5.0,75,0.00,,,0.00,49,weatherlink.com 1.10,2013-01-15 20:44:00,
2013-01-15 15:59:00,26.7,20.0,30.23,WNW,292,0.0,4.0,76,0.00,,,0.00,32,weatherlink.com 1.10,2013-01-15 20:59:00,
2013-01-15 16:14:00,26.3,20.0,30.24,WSW,257,0.0,8.0,77,0.00,,,0.00,18,weatherlink.com 1.10,2013-01-15 21:14:00,
2013-01-15 16:29:00,25.9,20.0,30.25,West,259,2.0,6.0,77,0.00,,,0.00,11,weatherlink.com 1.10,2013-01-15 21:29:00,
2013-01-15 16:44:00,25.4,19.0,30.25,WNW,295,0.0,8.0,78,0.00,,,0.00,0,weatherlink.com 1.10,2013-01-15 21:44:00,
2013-01-15 17:02:00,25.0,19.0,30.24,WNW,296,0.0,1.0,78,0.00,,,0.00,0,weatherlink.com 1.10,2013-01-15 22:02:00,
2013-01-15 17:16:00,24.8,19.0,30.24,SSW,210,0.0,6.0,79,0.00,,,0.00,0,weatherlink.com 1.10,2013-01-15 22:16:00,
2013-01-15 17:31:00,24.8,19.0,30.24,WSW,252,0.0,3.0,79,0.00,,,0.00,0,weatherlink.com 1.10,2013-01-15 22:31:00,
2013-01-15 17:46:00,24.6,19.0,30.25,WNW,296,0.0,2.0,79,0.00,,,0.00,0,weatherlink.com 1.10,2013-01-15 22:46:00,
2013-01-15 18:01:00,24.5,19.0,30.25,North,351,0.0,8.0,79,0.00,,,0.00,0,weatherlink.com 1.10,2013-01-15 23:01:00,
2013-01-15 18:16:00,24.3,19.0,30.25,East,92,0.0,2.0,80,0.00,,,0.00,0,weatherlink.com 1.10,2013-01-15 23:16:00,
2013-01-15 18:31:00,24.0,19.0,30.25,ESE,111,0.0,2.0,80,0.00,,,0.00,0,weatherlink.com 1.10,2013-01-15 23:31:00,
2013-01-15 18:46:00,24.1,19.0,30.25,SE,124,0.0,4.0,80,0.00,,,0.00,0,weatherlink.com 1.10,2013-01-15 23:46:00,
2013-01-15 19:01:00,23.9,19.0,30.24,SE,124,0.0,1.0,80,0.00,,,0.00,0,weatherlink.com 1.10,2013-01-16 00:01:00,
2013-01-15 19:16:00,23.6,18.0,30.24,SE,124,0.0,1.0,80,0.00,,,0.00,0,weatherlink.com 1.10,2013-01-16 00:16:00,
2013-01-15 19:31:00,23.7,18.0,30.23,North,360,0.0,5.0,80,0.00,,,0.00,0,weatherlink.com 1.10,2013-01-16 00:31:00,
2013-01-15 19:47:00,23.9,18.0,30.23,West,276,0.0,2.0,79,0.00,,,0.00,0,weatherlink.com 1.10,2013-01-16 00:47:00,
2013-01-15 20:01:00,24.1,18.0,30.23,WNW,302,0.0,7.0,78,0.00,,,0.00,0,weatherlink.com 1.10,2013-01-16 01:01:00,
2013-01-15 20:16:00,24.0,18.0,30.23,WNW,294,0.0,5.0,78,0.00,,,0.00,0,weatherlink.com 1.10,2013-01-16 01:16:00,
2013-01-15 20:31:00,24.1,18.0,30.22,WNW,286,0.0,1.0,78,0.00,,,0.00,0,weatherlink.com 1.10,2013-01-16 01:31:00,
2013-01-15 20:46:00,23.8,19.0,30.23,WNW,285,1.0,1.0,80,0.00,,,0.00,0,weatherlink.com 1.10,2013-01-16 01:46:00,
2013-01-15 21:01:00,23.8,19.0,30.22,SE,130,0.0,4.0,80,0.00,,,0.00,0,weatherlink.com 1.10,2013-01-16 02:01:00,
2013-01-15 21:16:00,23.6,19.0,30.21,SE,130,0.0,1.0,81,0.00,,,0.00,0,weatherlink.com 1.10,2013-01-16 02:16:00,
2013-01-15 21:31:00,23.4,19.0,30.21,SE,130,0.0,1.0,82,0.00,,,0.00,0,weatherlink.com 1.10,2013-01-16 02:31:00,
2013-01-15 21:46:00,23.3,19.0,30.20,SE,131,0.0,2.0,82,0.00,,,0.00,0,weatherlink.com 1.10,2013-01-16 02:46:00,
2013-01-15 22:01:00,23.4,18.0,30.20,SE,131,0.0,0.0,81,0.00,,,0.00,0,weatherlink.com 1.10,2013-01-16 03:01:00,
2013-01-15 22:16:00,22.9,19.0,30.21,SE,136,0.0,4.0,83,0.00,,,0.00,0,weatherlink.com 1.10,2013-01-16 03:16:00,
2013-01-15 22:31:00,22.7,19.0,30.20,SE,138,0.0,1.0,84,0.00,,,0.00,0,weatherlink.com 1.10,2013-01-16 03:31:00,
2013-01-15 22:46:00,23.0,19.0,30.21,SE,138,0.0,0.0,83,0.00,,,0.00,0,weatherlink.com 1.10,2013-01-16 03:46:00,
2013-01-15 23:16:00,22.8,19.0,30.21,SE,138,0.0,1.0,85,0.00,,,0.00,0,weatherlink.com 1.10,2013-01-16 04:16:00,
2013-01-15 23:31:00,22.9,19.0,30.20,SE,138,0.0,0.0,85,0.00,,,0.00,0,weatherlink.com 1.10,2013-01-16 04:31:00,
2013-01-15 23:46:00,23.1,20.0,30.20,SE,138,0.0,0.0,86,0.00,,,0.00,0,weatherlink.com 1.10,2013-01-16 04:46:00,